Flag for Ireland Weather past 2 weeks in Dublin, Ireland

Now
52 °F

Partly cloudy.


Feels Like: 46 °F
Forecast: 50 / 62 °F
Wind: 17 mph from North

Location: Dublin Airport

Current Time: Sep 4, 2015 at 2:58:42 AM

Latest Report: Sep 4, 2015 at 2:30 AM


Visibility: N/A

Pressure: 30.15 "Hg

Humidity: 77%

Dew point: 45 °F

Location of DublinLocation

Historic Weather in Dublin — Graph

°F

Dublin temperature yesterday

Maximum temperature yesterday: 57 °F (at 4:30 PM)
Minimum temperature yesterday: 48 °F (at 12:00 AM)
Average temperature yesterday: 52 °F

Past Weeks' High & Low Weather Summary

 TemperatureHumidityPressure
High70 °F (Aug 21, 12:30 PM)100% (Aug 20, 4:30 AM)30.18 "Hg (Aug 20, 4:30 AM)
Low39 °F (Aug 25, 5:00 AM)46% (Aug 21, 2:00 PM)29.30 "Hg (Aug 26, 5:00 AM)
Average56 °F83%29.84 "Hg
* Reported Aug 20 2:00 AM — Sep 4 2:00 AM, Dublin, Weather by CustomWeather, © 2015

Note: Actual official high and low records may vary slightly from our data, if they occured in-between our weather recording intervals... More about our weather records

Advertising

Dublin weather history for previous 24 hours

 ConditionsComfort  
Time TempWeatherWind HumidityBarometerVisibility
2:00 AM
Fri, Sep 4
52 °FPartly cloudy.14 mph77%30.15 "HgN/A
1:30 AM52 °FPartly cloudy.16 mph77%30.15 "HgN/A
1:00 AM52 °FPartly cloudy.12 mph82%30.15 "HgN/A
12:30 AM52 °FPassing clouds.13 mph82%30.15 "HgN/A
12:00 AM52 °FPassing clouds.17 mph82%30.15 "HgN/A
11:30 PM
Thu, Sep 3
52 °FPassing clouds.15 mph82%30.12 "HgN/A
10:00 PM54 °FPassing clouds.14 mph77%30.12 "HgN/A
9:30 PM54 °FPartly cloudy.14 mph77%30.12 "HgN/A
9:00 PM54 °FBroken clouds.14 mph77%30.12 "HgN/A
8:30 PM54 °FBroken clouds.13 mph77%30.12 "HgN/A
8:00 PM54 °FBroken clouds.12 mph77%30.09 "HgN/A
7:30 PM54 °FPartly sunny.14 mph77%30.09 "HgN/A
7:00 PM55 °FPartly sunny.9 mph72%30.09 "HgN/A
6:30 PM55 °FPartly sunny.12 mph72%30.09 "HgN/A
6:00 PM55 °FPartly sunny.15 mph72%30.09 "HgN/A
5:30 PM57 °FPartly sunny.16 mph63%30.09 "HgN/A
5:00 PM55 °FPartly sunny.16 mph72%30.09 "HgN/A
4:30 PM57 °FBroken clouds.16 mph67%30.09 "HgN/A
4:00 PM55 °FBroken clouds.14 mph72%30.09 "HgN/A
3:30 PM55 °FBroken clouds.9 mph72%30.09 "HgN/A
3:00 PM55 °FPartly sunny.12 mph72%30.09 "HgN/A
2:30 PM55 °FBroken clouds.14 mph77%30.09 "HgN/A
2:00 PM55 °FBroken clouds.13 mph77%30.09 "HgN/A
1:30 PM55 °FSprinkles. Broken clouds.14 mph72%30.09 "HgN/A
1:00 PM54 °FBroken clouds.16 mph77%30.09 "HgN/A
12:30 PM55 °FBroken clouds.14 mph72%30.09 "HgN/A
12:00 PM54 °FBroken clouds.15 mph77%30.09 "HgN/A
11:30 AM54 °FBroken clouds.12 mph82%30.09 "HgN/A
11:00 AM52 °FSprinkles. Broken clouds.17 mph82%30.09 "HgN/A
10:30 AM52 °FBroken clouds.10 mph88%30.09 "HgN/A
10:00 AM52 °FBroken clouds.12 mph88%30.09 "HgN/A
9:30 AM50 °FBroken clouds.10 mph94%30.09 "HgN/A
9:00 AM50 °FBroken clouds.12 mph94%30.09 "HgN/A
8:30 AM48 °FPartly sunny.13 mph94%30.09 "HgN/A
8:00 AM48 °FSprinkles. Broken clouds.12 mph94%30.09 "Hg3 mi
7:30 AM48 °FSprinkles. Passing clouds.16 mph94%30.09 "Hg6 mi
7:00 AM48 °FPassing clouds.14 mph87%30.09 "HgN/A
6:30 AM48 °FPartly cloudy.15 mph87%30.09 "HgN/A
6:00 AM48 °FPartly cloudy.13 mph87%30.09 "HgN/A
5:30 AM48 °FPartly cloudy.13 mph87%30.09 "HgN/A
5:00 AM48 °FPassing clouds.13 mph87%30.09 "HgN/A
4:30 AM48 °FPassing clouds.13 mph87%30.09 "HgN/A
4:00 AM48 °FPassing clouds.10 mph87%30.09 "HgN/A
3:30 AM48 °FPassing clouds.10 mph94%30.09 "HgN/A
3:00 AM48 °FPassing clouds.15 mph94%30.09 "HgN/A
2:30 AM48 °FPartly cloudy.12 mph94%30.12 "HgN/A
2:00 AM48 °FPartly cloudy.12 mph94%30.12 "HgN/A
Weather by CustomWeather, © 2015

See weather overviewHow to use our weather pages